Home   Weather   Haifa   Past weeks

Flag for Israel Past Weather in Haifa, Israel — Yesterday and Last 2 Weeks

Now
57 °F

Fog.


Feels Like: 57 °F
Forecast: 54 / 61 °F
Wind: 5 mph from Southeast

Location: Dov Airport

Current Time: Jan 19, 2017 at 2:15:17 am

Latest Report: Jan 18, 2017 at 11:24 pm


Visibility: 2 mi

Pressure: 30.12 "Hg

Humidity: 94%

Dew Point: 55 °F

Location of HaifaLocation

Past Weather in Haifa — Graph

°F

Haifa Temperature Yesterday

Maximum temperature yesterday: 66 °F (at 12:50 pm)
Minimum temperature yesterday: 54 °F (at 5:30 am)
Average temperature yesterday: 61 °F

High & Low Weather Summary for the Past Weeks

 TemperatureHumidityPressure
High70 °F (Jan 6, 2:50 pm)94% (Jan 4, 6:50 am)30.24 "Hg (Jan 4, 6:50 am)
Low46 °F (Jan 10, 6:50 am)28% (Jan 10, 12:50 pm)29.89 "Hg (Jan 14, 11:50 pm)
Average58 °F62%30.07 "Hg
* Reported Jan 4 5:50 am — Jan 18 11:24 pm, Haifa, Weather by CustomWeather, © 2017

Note: Actual official high and low records may vary slightly from our data, if they occured in-between our weather recording intervals... More about our weather records

Advertising

Haifa Weather History for the Previous 24 Hours

Scroll right to see more
 ConditionsComfort  
Time TempWeatherWind HumidityBarometerVisibility
11:24 pm
Wed, Jan 18
57 °FFog.5 mph94%30.12 "Hg2 mi
10:50 pm57 °FFog.6 mph94%30.12 "Hg2 mi
9:50 pm59 °FFog.5 mph88%30.12 "Hg3 mi
9:36 pm61 °FFog.5 mph88%30.12 "Hg3 mi
8:50 pm61 °FPassing clouds.3 mph83%30.12 "Hg6 mi
7:50 pm61 °FPassing clouds.3 mph83%30.09 "HgN/A
6:50 pm63 °FPassing clouds.3 mph77%30.09 "HgN/A
5:50 pm63 °FPassing clouds.7 mph77%30.09 "HgN/A
4:50 pm64 °FPassing clouds.7 mph73%30.07 "HgN/A
3:50 pm66 °FScattered clouds.7 mph68%30.07 "HgN/A
2:50 pm66 °FPassing clouds.8 mph68%30.07 "HgN/A
1:50 pm66 °FPassing clouds.9 mph73%30.04 "HgN/A
12:50 pm66 °FScattered clouds.12 mph73%30.07 "HgN/A
11:50 am64 °FScattered clouds.12 mph78%30.07 "Hg5 mi
10:50 am64 °FPassing clouds.6 mph73%30.07 "Hg6 mi
9:50 am61 °FScattered clouds.6 mph77%30.09 "Hg5 mi
8:50 am59 °FSunny.6 mph68%30.07 "Hg10 mi
7:50 am55 °FSunny.6 mph67%30.04 "Hg10 mi
6:50 am54 °FSunny.6 mph72%30.04 "Hg10 mi
5:50 am54 °FClear.6 mph67%30.01 "Hg10 mi
5:30 am54 °FClear.6 mph67%29.98 "Hg10 mi
Weather by CustomWeather, © 2017

See weather overviewHow to use our weather pages